MET7782 - Kangerlussuaq to Kansas City

Airbus A321-232
665MT - Sharklet Equipped
5 hrs 15 mins
2214 nm
Ferry - M

Departure

Departing from
Kangerlussuaq (SFJ)
Departure gate
Ramp
Scheduled Departure
GMT 1345
Local 1045
METAR BGSF 280150Z AUTO 05007KT 9999NDV BKN180/// BKN240/// M22/M25 Q1022
TAF TAF BGSF 271700Z 2718/2802 06007KT 9999 BKN120
  • No charts available

Route Map

Planning Resources

GPS DIRECT TO KMCI
+SF 6655N 6360N RODBO N484C SEMTO N496C SSM J101 BAE J105 BDF J26 IRK.BSQ4
6655N6560N FEDDY GW PELEE YXZ SAW DLL DBQ IOW IRK.BQS4
BGSF DIRECT FEDDY N518C YQT J533 DLH J21 GEP J25 KMCI
BGSF TO KMCI DIRECT
Route:
OFP Layout:
Units:
Detailed Navlog:
ETOPS Planning:
Plan Stepclimbs:
Runway Analysis:
Include NOTAMS:
FIR NOTAMS:
Flight Maps:

Popularity

Hub Current Bids PiReps this month Total PiReps
KMCI 0 0 1
KLAX 0 0 0
KBOS 0 0 0